This demonstration page uses our WeatherBlox Daily Observations layout. Learn more.

Left ArrowRight Arrow

38.80484, -77.04692

Hourly Observations for November 13, 2021

Temp ( °F °C ) Dew Point ( °F °C ) Humidity (%) Winds ( mph kmh ) Pressure ( in mb ) Visibility ( mi km ) Precip ( " mm )
12:52 am 00:52 Mostly Clear 49 9.4 44 6.7 83 83 SW 3 6 29.91 1013 10 16 N/A
1:52 am 01:52 Mostly Clear 48 8.9 44 6.7 86 86 SW 3 6 29.90 1012 10 16 N/A
2:52 am 02:52 Mostly Clear 48 8.9 44 6.7 86 86 N N/A 29.88 1012 10 16 N/A
3:52 am 03:52 Mostly Clear 47 8.3 44 6.7 90 90 N N/A 29.85 1011 9 14 N/A
4:52 am 04:52 Mostly Clear 47 8.3 44 6.7 90 90 N N/A 29.83 1010 10 16 N/A
5:52 am 05:52 Mostly Cloudy 48 8.9 43 6.1 83 83 SE 7 11 29.79 1009 10 16 N/A
6:52 am 06:52 Mostly Cloudy 49 9.4 43 6.1 80 80 WSW 6 9 29.80 1009 10 16 N/A
7:52 am 07:52 Mostly Cloudy 50 10 42 5.6 74 74 S 8 13 29.79 1009 10 16 N/A
8:52 am 08:52 Mostly Cloudy 52 11.1 42 5.6 69 69 W 10 17 29.81 1009 10 16 N/A
9:52 am 09:52 Mostly Cloudy 52 11.1 40 4.4 64 64 W 6 9 29.79 1009 10 16 N/A
10:52 am 10:52 Cloudy 53 11.7 38 3.3 57 57 NNW 7 11 29.80 1009 10 16 N/A
11:52 am 11:52 Cloudy with Light Rain 50 10 39 3.9 66 66 NW 15 24 29.84 1011 10 16 0.00 0.00
12:52 pm 12:52 Mostly Cloudy 52 11.1 40 4.4 64 64 NW 9 15 29.84 1011 10 16 0.01 0.25
1:52 pm 13:52 Mostly Cloudy 53 11.7 33 0.6 47 47 WNW 16 26 29.85 1011 10 16 N/A
2:52 pm 14:52 Mostly Sunny 52 11.1 28 -2.2 40 40 NW 16 26 29.87 1011 10 16 N/A
3:52 pm 15:52 Mostly Sunny 51 10.6 23 -5 33 33 WNW 15 24 29.90 1012 10 16 N/A
4:52 pm 16:52 Mostly Sunny 47 8.3 24 -4.4 41 41 W 17 28 29.92 1013 10 16 N/A
5:52 pm 17:52 Clear 46 7.8 24 -4.4 42 42 WNW 12 19 29.96 1015 10 16 N/A
6:52 pm 18:52 Clear 45 7.2 24 -4.4 44 44 WNW 10 17 29.98 1015 10 16 N/A
7:52 pm 19:52 Mostly Clear 44 6.7 25 -3.9 47 47 W 6 9 30.00 1016 10 16 N/A
8:52 pm 20:52 Clear 43 6.1 24 -4.4 47 47 WSW 6 9 30.01 1016 10 16 N/A
9:52 pm 21:52 Clear 42 5.6 25 -3.9 51 51 W 7 11 30.02 1017 10 16 N/A
10:52 pm 22:52 Clear 40 4.4 26 -3.3 58 58 SW 6 9 30.03 1017 10 16 N/A
11:52 pm 23:52 Clear 39 3.9 27 -2.8 62 62 SSW 6 9 30.02 1017 10 16 N/A

Powered by AerisWeather